Time,TemperatureF,DewpointF,PressureIn,WindDirection,WindDirectionDegrees,WindSpeedMPH,WindSpeedGustMPH,Humidity,HourlyPrecipIn,Conditions,Clouds,dailyrainin,SoftwareType,DateUTC
2013-06-30 00:01:00,76.4,72.6,29.85,SSE,155,3.4,3.4,88,0.00,CLR,OVC,0.00,WeatherDisplay:10.37,2013-06-30 04:01:00,
2013-06-30 00:06:00,76.4,72.6,29.85,South,169,3.4,3.4,88,0.00,CLR,OVC,0.00,WeatherDisplay:10.37,2013-06-30 04:06:00,
2013-06-30 00:11:00,76.4,72.6,29.85,SSW,212,3.4,3.4,88,0.00,CLR,OVC,0.00,WeatherDisplay:10.37,2013-06-30 04:11:00,
2013-06-30 00:16:00,76.3,72.5,29.85,South,173,3.4,3.4,88,0.00,CLR,OVC,0.00,WeatherDisplay:10.37,2013-06-30 04:16:00,
2013-06-30 00:21:00,76.3,72.5,29.85,SSE,163,3.4,3.4,88,0.00,CLR,OVC,0.00,WeatherDisplay:10.37,2013-06-30 04:21:00,
2013-06-30 00:26:00,76.3,72.5,29.85,SSE,166,4.6,4.6,88,0.00,CLR,OVC,0.00,WeatherDisplay:10.37,2013-06-30 04:26:00,
2013-06-30 00:31:00,76.3,72.5,29.85,South,191,4.6,4.6,88,0.00,CLR,OVC,0.00,WeatherDisplay:10.37,2013-06-30 04:31:00,
2013-06-30 00:36:00,76.3,72.5,29.85,SE,142,4.6,4.6,88,0.00,CLR,OVC,0.00,WeatherDisplay:10.37,2013-06-30 04:36:00,
2013-06-30 00:41:00,76.3,72.5,29.85,South,187,5.8,5.8,88,0.00,CLR,OVC,0.00,WeatherDisplay:10.37,2013-06-30 04:41:00,
2013-06-30 00:46:00,76.4,72.6,29.85,South,179,3.4,3.4,88,0.00,CLR,OVC,0.00,WeatherDisplay:10.37,2013-06-30 04:46:00,
2013-06-30 00:51:00,76.4,72.6,29.85,SW,224,5.8,5.8,88,0.00,CLR,OVC,0.00,WeatherDisplay:10.37,2013-06-30 04:51:00,
2013-06-30 00:56:00,76.3,72.5,29.84,SSE,166,2.3,2.3,88,0.00,CLR,OVC,0.00,WeatherDisplay:10.37,2013-06-30 04:56:00,
2013-06-30 01:01:00,76.3,72.5,29.84,South,186,3.4,3.4,88,0.00,CLR,OVC,0.00,WeatherDisplay:10.37,2013-06-30 05:01:00,
2013-06-30 01:06:00,76.2,72.4,29.84,SSE,153,6.9,6.9,88,0.00,CLR,OVC,0.00,WeatherDisplay:10.37,2013-06-30 05:06:00,
2013-06-30 01:11:00,76.3,72.5,29.84,South,173,3.4,3.4,88,0.00,CLR,OVC,0.00,WeatherDisplay:10.37,2013-06-30 05:11:00,
2013-06-30 01:16:00,76.2,72.4,29.84,SSE,164,3.4,3.4,88,0.00,CLR,OVC,0.00,WeatherDisplay:10.37,2013-06-30 05:16:00,
2013-06-30 01:21:00,76.2,72.4,29.85,South,188,4.6,4.6,88,0.00,CLR,OVC,0.00,WeatherDisplay:10.37,2013-06-30 05:21:00,
2013-06-30 01:26:00,76.2,72.4,29.85,SSW,199,3.4,3.4,88,0.00,CLR,OVC,0.00,WeatherDisplay:10.37,2013-06-30 05:26:00,
2013-06-30 01:31:00,76.1,72.3,29.84,South,186,2.3,2.3,88,0.00,CLR,OVC,0.00,WeatherDisplay:10.37,2013-06-30 05:31:00,
2013-06-30 01:36:00,76.1,72.3,29.84,SW,230,3.4,3.4,88,0.00,CLR,OVC,0.00,WeatherDisplay:10.37,2013-06-30 05:36:00,
2013-06-30 01:41:00,76.1,72.3,29.84,SSE,166,3.4,3.4,88,0.00,CLR,OVC,0.00,WeatherDisplay:10.37,2013-06-30 05:41:00,
2013-06-30 01:46:00,76.1,72.3,29.84,South,180,2.3,2.3,88,0.00,CLR,OVC,0.00,WeatherDisplay:10.37,2013-06-30 05:46:00,
2013-06-30 01:51:00,76.0,72.2,29.84,SW,222,3.4,3.4,88,0.00,CLR,OVC,0.00,WeatherDisplay:10.37,2013-06-30 05:51:00,
2013-06-30 01:56:00,75.9,72.4,29.84,South,173,3.4,3.4,89,0.00,CLR,OVC,0.00,WeatherDisplay:10.37,2013-06-30 05:56:00,
2013-06-30 01:59:00,75.9,72.4,29.84,South,187,3.4,3.4,89,0.00,CLR,OVC,0.00,WeatherDisplay:10.37,2013-06-30 05:59:00,
2013-06-30 02:01:00,75.9,72.4,29.84,South,187,3.4,3.4,89,0.00,CLR,OVC,0.00,WeatherDisplay:10.37,2013-06-30 06:01:00,
2013-06-30 02:06:00,75.9,72.4,29.84,South,187,3.4,3.4,89,0.00,CLR,OVC,0.00,WeatherDisplay:10.37,2013-06-30 06:06:00,
2013-06-30 02:13:00,75.8,72.3,29.84,South,175,5.0,5.0,89,0.00,CLR,OVC,0.00,WeatherDisplay:10.37,2013-06-30 06:13:00,
2013-06-30 02:18:00,75.7,72.2,29.84,SSE,168,3.4,3.4,89,0.00,FEW,OVC,0.00,WeatherDisplay:10.37,2013-06-30 06:18:00,
2013-06-30 02:23:00,75.7,72.2,29.83,SSE,155,3.4,3.4,89,0.00,FEW,OVC,0.00,WeatherDisplay:10.37,2013-06-30 06:23:00,
2013-06-30 02:28:00,75.7,72.2,29.83,SW,227,4.0,4.0,89,0.00,FEW,OVC,0.00,WeatherDisplay:10.37,2013-06-30 06:28:00,
2013-06-30 02:33:00,75.7,72.2,29.83,SSW,194,2.3,2.3,89,0.00,FEW,OVC,0.00,WeatherDisplay:10.37,2013-06-30 06:33:00,
2013-06-30 02:38:00,75.6,72.1,29.83,SSE,151,4.0,4.0,89,0.00,FEW,OVC,0.00,WeatherDisplay:10.37,2013-06-30 06:38:00,
2013-06-30 02:43:00,75.5,72.0,29.83,South,173,3.4,3.4,89,0.00,FEW,OVC,0.00,WeatherDisplay:10.37,2013-06-30 06:43:00,
2013-06-30 02:48:00,75.5,72.0,29.83,South,169,3.4,3.4,89,0.00,FEW,OVC,0.00,WeatherDisplay:10.37,2013-06-30 06:48:00,
2013-06-30 02:53:00,75.4,71.9,29.83,SSW,201,3.4,3.4,89,0.00,FEW,OVC,0.00,WeatherDisplay:10.37,2013-06-30 06:53:00,
2013-06-30 02:58:00,75.4,71.9,29.83,SSW,209,3.4,3.4,89,0.00,FEW,OVC,0.00,WeatherDisplay:10.37,2013-06-30 06:58:00,
2013-06-30 03:03:00,75.3,71.8,29.83,SSE,156,3.4,3.4,89,0.00,CLR,OVC,0.00,WeatherDisplay:10.37,2013-06-30 07:03:00,
2013-06-30 03:08:00,75.4,71.9,29.83,SSE,161,2.3,2.3,89,0.00,CLR,OVC,0.00,WeatherDisplay:10.37,2013-06-30 07:08:00,
2013-06-30 03:13:00,75.4,71.9,29.82,South,181,2.3,2.3,89,0.00,CLR,OVC,0.00,WeatherDisplay:10.37,2013-06-30 07:13:00,
2013-06-30 03:18:00,75.3,71.8,29.82,South,173,2.3,2.3,89,0.00,CLR,OVC,0.00,WeatherDisplay:10.37,2013-06-30 07:18:00,
2013-06-30 03:23:00,75.2,71.7,29.83,South,188,3.4,3.4,89,0.00,CLR,OVC,0.00,WeatherDisplay:10.37,2013-06-30 07:23:00,
2013-06-30 03:28:00,75.1,71.6,29.83,SW,233,2.3,2.3,89,0.00,CLR,OVC,0.00,WeatherDisplay:10.37,2013-06-30 07:28:00,
2013-06-30 03:33:00,75.0,71.5,29.83,SSW,192,2.3,2.3,89,0.00,CLR,OVC,0.00,WeatherDisplay:10.37,2013-06-30 07:33:00,
2013-06-30 03:38:00,74.9,71.4,29.83,South,182,2.3,2.3,89,0.00,CLR,OVC,0.00,WeatherDisplay:10.37,2013-06-30 07:38:00,
2013-06-30 03:43:00,74.9,71.4,29.82,SW,220,2.3,2.3,89,0.00,CLR,OVC,0.00,WeatherDisplay:10.37,2013-06-30 07:43:00,
2013-06-30 03:48:00,75.0,71.5,29.82,SSW,201,2.3,2.3,89,0.00,CLR,OVC,0.00,WeatherDisplay:10.37,2013-06-30 07:48:00,
2013-06-30 03:53:00,75.0,71.5,29.82,South,186,2.3,2.3,89,0.00,CLR,OVC,0.00,WeatherDisplay:10.37,2013-06-30 07:53:00,
2013-06-30 03:58:00,74.9,71.4,29.82,South,173,2.3,2.3,89,0.00,CLR,OVC,0.00,WeatherDisplay:10.37,2013-06-30 07:58:00,
2013-06-30 04:03:00,74.9,71.8,29.82,South,187,2.3,2.3,90,0.00,CLR,OVC,0.00,WeatherDisplay:10.37,2013-06-30 08:03:00,
2013-06-30 04:08:00,75.0,71.9,29.82,South,191,2.3,2.3,90,0.00,CLR,OVC,0.00,WeatherDisplay:10.37,2013-06-30 08:08:00,
2013-06-30 04:13:00,75.0,71.9,29.82,South,170,2.3,2.3,90,0.00,CLR,OVC,0.00,WeatherDisplay:10.37,2013-06-30 08:13:00,
2013-06-30 04:18:00,75.0,71.9,29.82,SW,219,2.3,2.3,90,0.00,CLR,OVC,0.00,WeatherDisplay:10.37,2013-06-30 08:18:00,
2013-06-30 04:23:00,75.0,71.9,29.82,SSE,155,2.3,2.3,90,0.00,CLR,OVC,0.00,WeatherDisplay:10.37,2013-06-30 08:23:00,
2013-06-30 04:28:00,74.9,71.8,29.82,SSE,153,1.1,1.1,90,0.00,CLR,OVC,0.00,WeatherDisplay:10.37,2013-06-30 08:28:00,
2013-06-30 04:33:00,74.9,71.8,29.82,SSE,167,2.0,2.0,90,0.00,CLR,OVC,0.00,WeatherDisplay:10.37,2013-06-30 08:33:00,
2013-06-30 04:38:00,74.9,71.8,29.82,SSW,213,2.3,2.3,90,0.00,CLR,OVC,0.00,WeatherDisplay:10.37,2013-06-30 08:38:00,
2013-06-30 04:43:00,74.8,71.7,29.82,SE,137,1.1,1.1,90,0.00,CLR,OVC,0.00,WeatherDisplay:10.37,2013-06-30 08:43:00,
2013-06-30 04:48:00,74.7,71.6,29.82,SSE,161,1.0,0.0,90,0.00,CLR,OVC,0.00,WeatherDisplay:10.37,2013-06-30 08:48:00,
2013-06-30 04:53:00,74.5,71.4,29.82,SE,125,1.1,1.1,90,0.00,CLR,OVC,0.00,WeatherDisplay:10.37,2013-06-30 08:53:00,
2013-06-30 04:58:00,74.5,71.4,29.82,ESE,120,1.1,1.1,90,0.00,CLR,OVC,0.00,WeatherDisplay:10.37,2013-06-30 08:58:00,
2013-06-30 05:03:00,74.4,71.3,29.82,SSE,166,2.3,2.3,90,0.00,CLR,OVC,0.00,WeatherDisplay:10.37,2013-06-30 09:03:00,
2013-06-30 05:08:00,74.2,71.1,29.82,ESE,118,1.1,1.1,90,0.00,CLR,OVC,0.00,WeatherDisplay:10.37,2013-06-30 09:08:00,
2013-06-30 05:13:00,74.2,71.1,29.82,SE,133,3.4,3.4,90,0.00,CLR,OVC,0.00,WeatherDisplay:10.37,2013-06-30 09:13:00,
2013-06-30 05:18:00,74.2,71.1,29.82,SE,137,2.3,2.3,90,0.00,CLR,OVC,0.00,WeatherDisplay:10.37,2013-06-30 09:18:00,
2013-06-30 05:23:00,74.1,71.0,29.83,SSE,155,1.1,1.1,90,0.00,CLR,OVC,0.00,WeatherDisplay:10.37,2013-06-30 09:23:00,
2013-06-30 05:28:00,74.1,71.0,29.83,SE,124,1.1,1.1,90,0.00,CLR,OVC,0.00,WeatherDisplay:10.37,2013-06-30 09:28:00,
2013-06-30 05:33:00,74.0,70.9,29.83,SE,137,2.3,2.3,90,0.00,CLR,OVC,0.00,WeatherDisplay:10.37,2013-06-30 09:33:00,
2013-06-30 05:38:00,73.9,70.8,29.83,SE,137,1.1,1.1,90,0.00,CLR,OVC,0.00,WeatherDisplay:10.37,2013-06-30 09:38:00,
2013-06-30 05:43:00,73.9,70.8,29.83,SE,132,3.4,3.4,90,0.00,CLR,OVC,0.00,WeatherDisplay:10.37,2013-06-30 09:43:00,
2013-06-30 05:48:00,73.9,70.8,29.83,SSE,154,2.3,2.3,90,0.00,FEW,OVC,0.00,WeatherDisplay:10.37,2013-06-30 09:48:00,
2013-06-30 05:53:00,74.0,70.9,29.84,SSE,149,1.1,1.1,90,0.00,FEW,OVC,0.00,WeatherDisplay:10.37,2013-06-30 09:53:00,
2013-06-30 05:58:00,74.0,70.9,29.84,SE,135,1.0,0.0,90,0.00,FEW,OVC,0.00,WeatherDisplay:10.37,2013-06-30 09:58:00,
2013-06-30 06:03:00,74.0,70.9,29.84,SE,132,1.1,1.1,90,0.00,CLR,OVC,0.00,WeatherDisplay:10.37,2013-06-30 10:03:00,
2013-06-30 06:08:00,74.0,70.9,29.84,SSE,149,1.1,1.1,90,0.00,CLR,OVC,0.00,WeatherDisplay:10.37,2013-06-30 10:08:00,
2013-06-30 06:13:00,74.0,70.9,29.84,SSE,168,2.3,2.3,90,0.00,CLR,OVC,0.00,WeatherDisplay:10.37,2013-06-30 10:13:00,
2013-06-30 06:18:00,74.1,71.0,29.84,SSE,158,2.3,2.3,90,0.00,CLR,OVC,0.00,WeatherDisplay:10.37,2013-06-30 10:18:00,
2013-06-30 06:23:00,74.2,71.1,29.84,SSE,162,1.1,1.1,90,0.00,CLR,OVC,0.00,WeatherDisplay:10.37,2013-06-30 10:23:00,
2013-06-30 06:28:00,74.2,71.1,29.84,SSE,167,2.3,2.3,90,0.00,CLR,OVC,0.00,WeatherDisplay:10.37,2013-06-30 10:28:00,
2013-06-30 06:33:00,74.3,71.2,29.84,SSE,168,1.1,1.1,90,0.00,CLR,OVC,0.00,WeatherDisplay:10.37,2013-06-30 10:33:00,
2013-06-30 06:38:00,74.3,71.2,29.84,SSE,151,2.3,2.3,90,0.00,CLR,OVC,0.00,WeatherDisplay:10.37,2013-06-30 10:38:00,
2013-06-30 06:43:00,74.4,71.3,29.84,South,187,1.1,1.1,90,0.00,CLR,OVC,0.00,WeatherDisplay:10.37,2013-06-30 10:43:00,
2013-06-30 06:48:00,74.4,71.3,29.84,South,178,2.3,2.3,90,0.00,CLR,OVC,0.00,WeatherDisplay:10.37,2013-06-30 10:48:00,
2013-06-30 06:53:00,74.5,71.4,29.84,SSE,161,1.1,1.1,90,0.00,CLR,OVC,0.00,WeatherDisplay:10.37,2013-06-30 10:53:00,
2013-06-30 06:58:00,74.5,71.4,29.85,SSE,157,1.1,1.1,90,0.00,CLR,OVC,0.00,WeatherDisplay:10.37,2013-06-30 10:58:00,
2013-06-30 07:03:00,74.5,71.4,29.85,SSE,163,3.4,3.4,90,0.00,CLR,OVC,0.00,WeatherDisplay:10.37,2013-06-30 11:03:00,
2013-06-30 07:08:00,74.6,71.5,29.85,South,177,1.1,1.1,90,0.00,CLR,OVC,0.00,WeatherDisplay:10.37,2013-06-30 11:08:00,
2013-06-30 07:13:00,74.7,71.6,29.85,SSE,156,1.1,1.1,90,0.00,CLR,OVC,0.00,WeatherDisplay:10.37,2013-06-30 11:13:00,
2013-06-30 07:18:00,74.9,71.8,29.85,SSW,207,2.3,2.3,90,0.00,CLR,OVC,0.00,WeatherDisplay:10.37,2013-06-30 11:18:00,
2013-06-30 07:23:00,75.0,71.9,29.85,SE,140,3.4,3.4,90,0.00,CLR,OVC,0.00,WeatherDisplay:10.37,2013-06-30 11:23:00,
2013-06-30 07:28:00,75.2,72.1,29.85,SSE,152,2.3,2.3,90,0.00,CLR,OVC,0.00,WeatherDisplay:10.37,2013-06-30 11:28:00,
2013-06-30 07:33:00,75.4,72.3,29.85,SSE,159,1.1,1.1,90,0.00,CLR,OVC,0.00,WeatherDisplay:10.37,2013-06-30 11:33:00,
2013-06-30 07:38:00,75.7,72.6,29.85,WSW,256,2.3,2.3,90,0.00,CLR,OVC,0.00,WeatherDisplay:10.37,2013-06-30 11:38:00,
2013-06-30 07:43:00,76.1,73.0,29.85,SSE,155,1.1,1.1,90,0.00,CLR,OVC,0.00,WeatherDisplay:10.37,2013-06-30 11:43:00,
2013-06-30 07:48:00,76.4,72.9,29.85,SE,142,3.0,3.0,89,0.00,FEW,OVC,0.00,WeatherDisplay:10.37,2013-06-30 11:48:00,
2013-06-30 07:53:00,76.7,73.2,29.85,South,170,3.4,3.4,89,0.00,FEW,OVC,0.00,WeatherDisplay:10.37,2013-06-30 11:53:00,
2013-06-30 07:58:00,77.3,73.8,29.86,SSE,147,3.4,3.4,89,0.00,FEW,OVC,0.00,WeatherDisplay:10.37,2013-06-30 11:58:00,
2013-06-30 08:03:00,77.9,74.1,29.86,SSW,202,2.3,2.3,88,0.00,FEW,OVC,0.00,WeatherDisplay:10.37,2013-06-30 12:03:00,
2013-06-30 08:08:00,78.2,74.4,29.86,SSE,167,3.4,3.4,88,0.00,FEW,OVC,0.00,WeatherDisplay:10.37,2013-06-30 12:08:00,
2013-06-30 08:13:00,78.6,74.7,29.86,South,178,3.4,3.4,88,0.00,FEW,OVC,0.00,WeatherDisplay:10.37,2013-06-30 12:13:00,
2013-06-30 08:18:00,79.1,74.9,29.86,SSE,167,3.4,3.4,87,0.00,FEW,OVC,0.00,WeatherDisplay:10.37,2013-06-30 12:18:00,
2013-06-30 08:23:00,79.2,75.0,29.86,SW,219,3.4,3.4,87,0.00,FEW,OVC,0.00,WeatherDisplay:10.37,2013-06-30 12:23:00,
2013-06-30 08:28:00,79.5,75.3,29.86,SW,236,4.6,4.6,87,0.00,FEW,OVC,0.00,WeatherDisplay:10.37,2013-06-30 12:28:00,
2013-06-30 08:33:00,79.8,75.2,29.86,South,177,3.4,3.4,86,0.00,FEW,OVC,0.00,WeatherDisplay:10.37,2013-06-30 12:33:00,
2013-06-30 08:38:00,80.0,75.4,29.86,WSW,249,5.8,5.8,86,0.00,FEW,OVC,0.00,WeatherDisplay:10.37,2013-06-30 12:38:00,
2013-06-30 08:43:00,80.2,75.6,29.87,SSW,211,3.4,3.4,86,0.00,FEW,OVC,0.00,WeatherDisplay:10.37,2013-06-30 12:43:00,
2013-06-30 08:48:00,80.6,75.7,29.86,South,182,3.4,3.4,85,0.00,FEW,OVC,0.00,WeatherDisplay:10.37,2013-06-30 12:48:00,
2013-06-30 08:53:00,80.8,75.9,29.87,South,180,5.8,5.8,85,0.00,FEW,OVC,0.00,WeatherDisplay:10.37,2013-06-30 12:53:00,
2013-06-30 08:54:00,80.8,75.9,29.87,SSW,206,3.4,3.4,85,0.00,FEW,OVC,0.00,WeatherDisplay:10.37,2013-06-30 12:54:00,
2013-06-30 08:58:00,80.8,75.9,29.87,SSW,206,3.4,3.4,85,0.00,FEW,OVC,0.00,WeatherDisplay:10.37,2013-06-30 12:58:00,
2013-06-30 09:03:00,80.8,75.9,29.87,SSW,206,3.4,3.4,85,0.00,FEW,OVC,0.00,WeatherDisplay:10.37,2013-06-30 13:03:00,
2013-06-30 09:13:00,81.9,76.6,29.87,South,177,7.0,7.0,84,0.00,CLR,OVC,0.00,WeatherDisplay:10.37,2013-06-30 13:13:00,
2013-06-30 09:18:00,82.4,76.7,29.87,SSW,206,5.0,5.0,83,0.00,CLR,OVC,0.00,WeatherDisplay:10.37,2013-06-30 13:18:00,
2013-06-30 09:23:00,82.3,76.6,29.87,South,183,4.6,4.6,83,0.00,CLR,OVC,0.00,WeatherDisplay:10.37,2013-06-30 13:23:00,
2013-06-30 09:28:00,82.7,76.6,29.87,SW,227,6.0,6.0,82,0.00,CLR,OVC,0.00,WeatherDisplay:10.37,2013-06-30 13:28:00,
2013-06-30 09:33:00,82.7,77.0,29.87,SSW,202,4.0,4.0,83,0.00,CLR,OVC,0.00,WeatherDisplay:10.37,2013-06-30 13:33:00,
2013-06-30 09:38:00,82.9,76.8,29.86,SW,220,5.8,5.8,82,0.00,CLR,OVC,0.00,WeatherDisplay:10.37,2013-06-30 13:38:00,
2013-06-30 09:43:00,82.9,76.8,29.86,SSW,194,5.8,5.8,82,0.00,CLR,OVC,0.00,WeatherDisplay:10.37,2013-06-30 13:43:00,
2013-06-30 09:48:00,83.0,77.3,29.87,SW,219,3.4,3.4,83,0.00,CLR,OVC,0.00,WeatherDisplay:10.37,2013-06-30 13:48:00,
2013-06-30 09:53:00,83.4,77.0,29.87,SE,128,6.9,6.9,81,0.00,CLR,OVC,0.00,WeatherDisplay:10.37,2013-06-30 13:53:00,
2013-06-30 09:58:00,83.3,76.9,29.87,SSW,195,4.6,4.6,81,0.00,CLR,OVC,0.00,WeatherDisplay:10.37,2013-06-30 13:58:00,
2013-06-30 10:03:00,83.9,77.8,29.87,SSE,166,3.4,3.4,82,0.00,FEW,OVC,0.00,WeatherDisplay:10.37,2013-06-30 14:03:00,
2013-06-30 10:08:00,84.0,77.2,29.87,South,189,5.0,5.0,80,0.00,FEW,OVC,0.00,WeatherDisplay:10.37,2013-06-30 14:08:00,
2013-06-30 10:13:00,83.8,77.3,29.87,SSE,161,5.0,5.0,81,0.00,FEW,OVC,0.00,WeatherDisplay:10.37,2013-06-30 14:13:00,
2013-06-30 10:18:00,84.7,77.8,29.86,SW,232,5.8,5.8,80,0.00,FEW,OVC,0.00,WeatherDisplay:10.37,2013-06-30 14:18:00,
2013-06-30 10:23:00,84.5,77.3,29.87,SSE,161,8.1,8.1,79,0.00,FEW,OVC,0.00,WeatherDisplay:10.37,2013-06-30 14:23:00,
2013-06-30 10:28:00,83.7,76.9,29.86,SSE,165,4.6,4.6,80,0.00,FEW,OVC,0.00,WeatherDisplay:10.37,2013-06-30 14:28:00,
2013-06-30 10:33:00,83.2,76.8,29.86,SSW,196,5.0,5.0,81,0.00,FEW,OVC,0.00,WeatherDisplay:10.37,2013-06-30 14:33:00,
2013-06-30 10:38:00,82.9,77.6,29.86,SSW,196,3.4,3.4,84,0.00,FEW,OVC,0.00,WeatherDisplay:10.37,2013-06-30 14:38:00,
2013-06-30 10:43:00,83.0,76.9,29.86,West,261,5.8,5.8,82,0.00,FEW,OVC,0.00,WeatherDisplay:10.37,2013-06-30 14:43:00,
2013-06-30 10:48:00,83.1,77.0,29.86,South,182,3.4,3.4,82,0.00,FEW,OVC,0.00,WeatherDisplay:10.37,2013-06-30 14:48:00,
2013-06-30 10:53:00,83.8,77.3,29.86,SSW,196,5.0,5.0,81,0.00,FEW,OVC,0.00,WeatherDisplay:10.37,2013-06-30 14:53:00,
2013-06-30 10:58:00,82.8,76.7,29.86,SW,227,10.3,10.3,82,0.04,RA,OVC,0.06,WeatherDisplay:10.37,2013-06-30 14:58:00,
2013-06-30 11:03:00,80.3,74.7,29.86,North,1,3.4,3.4,83,0.13,RA,OVC,0.13,WeatherDisplay:10.37,2013-06-30 15:03:00,
2013-06-30 11:08:00,79.8,75.2,29.86,North,357,2.3,2.3,86,0.13,RA,OVC,0.13,WeatherDisplay:10.37,2013-06-30 15:08:00,
2013-06-30 11:14:00,80.9,76.7,29.85,WNW,298,1.1,1.1,87,0.13,FEW,OVC,0.13,WeatherDisplay:10.37,2013-06-30 15:14:00,
2013-06-30 11:18:00,81.6,77.0,29.85,North,358,2.3,2.3,86,0.13,FEW,OVC,0.13,WeatherDisplay:10.37,2013-06-30 15:18:00,
2013-06-30 11:24:00,82.1,77.8,29.85,North,5,1.1,0.0,87,0.13,FEW,OVC,0.13,WeatherDisplay:10.37,2013-06-30 15:24:00,
2013-06-30 11:29:00,82.9,78.6,29.85,NNE,12,1.1,0.0,87,0.13,FEW,OVC,0.13,WeatherDisplay:10.37,2013-06-30 15:29:00,
2013-06-30 11:34:00,83.7,78.0,29.85,South,173,3.4,3.4,83,0.13,FEW,OVC,0.13,WeatherDisplay:10.37,2013-06-30 15:34:00,
2013-06-30 11:39:00,84.4,77.6,29.85,SSE,147,6.9,6.9,80,0.13,FEW,OVC,0.13,WeatherDisplay:10.37,2013-06-30 15:39:00,
2013-06-30 11:44:00,84.9,78.0,29.85,SW,235,5.8,5.8,80,0.13,FEW,OVC,0.13,WeatherDisplay:10.37,2013-06-30 15:44:00,
2013-06-30 11:49:00,83.3,75.3,29.86,West,275,9.2,9.2,77,0.13,FEW,OVC,0.13,WeatherDisplay:10.37,2013-06-30 15:49:00,
2013-06-30 11:54:00,81.1,74.7,29.86,SW,233,2.3,2.3,81,0.13,FEW,OVC,0.13,WeatherDisplay:10.37,2013-06-30 15:54:00,
2013-06-30 11:59:00,80.4,74.8,29.86,SSW,201,4.6,4.6,83,0.09,FEW,OVC,0.13,WeatherDisplay:10.37,2013-06-30 15:59:00,
2013-06-30 12:04:00,80.2,74.9,29.86,West,260,3.4,3.4,84,0.00,FEW,OVC,0.13,WeatherDisplay:10.37,2013-06-30 16:04:00,
2013-06-30 12:09:00,80.4,75.1,29.86,SW,227,3.4,3.4,84,0.00,FEW,OVC,0.13,WeatherDisplay:10.37,2013-06-30 16:09:00,
2013-06-30 12:14:00,81.5,75.8,29.86,WSW,250,4.6,4.6,83,0.00,FEW,OVC,0.13,WeatherDisplay:10.37,2013-06-30 16:14:00,
2013-06-30 12:19:00,82.8,76.4,29.85,SSW,206,3.4,3.4,81,0.00,FEW,OVC,0.13,WeatherDisplay:10.37,2013-06-30 16:19:00,
2013-06-30 12:24:00,84.3,77.1,29.85,SW,222,4.6,4.6,79,0.00,FEW,OVC,0.13,WeatherDisplay:10.37,2013-06-30 16:24:00,
2013-06-30 12:29:00,85.4,77.8,29.85,WSW,243,4.6,4.6,78,0.00,FEW,OVC,0.13,WeatherDisplay:10.37,2013-06-30 16:29:00,
2013-06-30 12:34:00,86.8,79.5,29.85,WNW,289,3.0,3.0,79,0.00,BKN,OVC,0.13,WeatherDisplay:10.37,2013-06-30 16:34:00,
2013-06-30 12:39:00,87.5,79.4,29.85,WSW,240,5.8,5.8,77,0.00,BKN,OVC,0.13,WeatherDisplay:10.37,2013-06-30 16:39:00,
2013-06-30 12:43:00,87.8,79.3,29.85,West,269,8.0,8.0,76,0.00,BKN,OVC,0.13,WeatherDisplay:10.37,2013-06-30 16:43:00,
2013-06-30 12:49:00,86.7,76.2,29.85,WSW,246,13.0,13.0,71,0.00,-RA,OVC,0.13,WeatherDisplay:10.37,2013-06-30 16:49:00,
2013-06-30 12:54:00,82.5,74.6,29.86,SW,219,16.1,16.1,77,0.00,-RA,OVC,0.13,WeatherDisplay:10.37,2013-06-30 16:54:00,
2013-06-30 12:59:00,79.5,73.9,29.86,West,279,13.8,13.8,83,0.02,-RA,OVC,0.15,WeatherDisplay:10.37,2013-06-30 16:59:00,
2013-06-30 13:04:00,78.8,74.3,29.85,WNW,299,3.4,3.4,86,0.02,-RA,OVC,0.15,WeatherDisplay:10.37,2013-06-30 17:04:00,
2013-06-30 13:08:00,79.5,74.9,29.86,NW,314,4.6,4.6,86,0.02,-RA,OVC,0.15,WeatherDisplay:10.37,2013-06-30 17:08:00,
2013-06-30 13:14:00,80.1,75.2,29.85,SW,222,6.9,6.9,85,0.02,-RA,OVC,0.15,WeatherDisplay:10.37,2013-06-30 17:14:00,
2013-06-30 13:18:00,80.0,75.1,29.86,South,181,5.8,5.8,85,0.02,OVC,OVC,0.15,WeatherDisplay:10.37,2013-06-30 17:18:00,
2013-06-30 13:24:00,79.8,74.9,29.85,SSW,208,6.9,6.9,85,0.02,OVC,OVC,0.15,WeatherDisplay:10.37,2013-06-30 17:24:00,
2013-06-30 13:28:00,79.4,74.1,29.86,WSW,241,7.0,7.0,84,0.02,OVC,OVC,0.15,WeatherDisplay:10.37,2013-06-30 17:28:00,
2013-06-30 13:34:00,79.3,74.0,29.86,SSW,211,5.8,5.8,84,0.02,OVC,OVC,0.15,WeatherDisplay:10.37,2013-06-30 17:34:00,
2013-06-30 13:39:00,79.0,73.7,29.85,SW,224,6.9,6.9,84,0.02,OVC,OVC,0.15,WeatherDisplay:10.37,2013-06-30 17:39:00,
2013-06-30 13:44:00,78.7,72.7,29.85,SSW,211,6.9,6.9,82,0.02,OVC,OVC,0.15,WeatherDisplay:10.37,2013-06-30 17:44:00,
2013-06-30 13:49:00,78.3,72.0,29.85,South,190,3.4,3.4,81,0.02,OVC,OVC,0.15,WeatherDisplay:10.37,2013-06-30 17:49:00,
2013-06-30 13:54:00,78.1,71.8,29.85,SSW,208,3.4,3.4,81,0.02,OVC,OVC,0.15,WeatherDisplay:10.37,2013-06-30 17:54:00,
2013-06-30 13:58:00,78.0,71.7,29.85,South,175,3.4,3.4,81,0.00,OVC,OVC,0.15,WeatherDisplay:10.37,2013-06-30 17:58:00,
2013-06-30 14:04:00,78.0,71.7,29.86,SSE,165,4.0,4.0,81,0.00,FEW,OVC,0.15,WeatherDisplay:10.37,2013-06-30 18:04:00,
2013-06-30 14:09:00,78.1,71.8,29.86,SSE,163,4.6,4.6,81,0.00,FEW,OVC,0.15,WeatherDisplay:10.37,2013-06-30 18:09:00,
2013-06-30 14:14:00,78.3,72.3,29.85,SSW,197,3.4,3.4,82,0.00,FEW,OVC,0.15,WeatherDisplay:10.37,2013-06-30 18:14:00,
2013-06-30 14:19:00,78.7,72.7,29.85,SW,222,4.0,4.0,82,0.00,FEW,OVC,0.15,WeatherDisplay:10.37,2013-06-30 18:19:00,
2013-06-30 14:24:00,79.2,72.5,29.85,SW,232,6.9,6.9,80,0.00,FEW,OVC,0.15,WeatherDisplay:10.37,2013-06-30 18:24:00,
2013-06-30 14:29:00,79.8,72.7,29.84,WSW,251,3.4,3.4,79,0.00,FEW,OVC,0.15,WeatherDisplay:10.37,2013-06-30 18:29:00,
2013-06-30 14:34:00,80.3,73.6,29.85,SW,222,3.4,3.4,80,0.00,FEW,OVC,0.15,WeatherDisplay:10.37,2013-06-30 18:34:00,
2013-06-30 14:39:00,81.0,74.6,29.85,SE,138,2.3,2.3,81,0.00,FEW,OVC,0.15,WeatherDisplay:10.37,2013-06-30 18:39:00,
2013-06-30 14:44:00,82.0,74.5,29.85,SW,223,2.3,2.3,78,0.00,FEW,OVC,0.15,WeatherDisplay:10.37,2013-06-30 18:44:00,
2013-06-30 14:49:00,82.7,74.8,29.85,SSW,206,3.4,3.4,77,0.00,FEW,OVC,0.15,WeatherDisplay:10.37,2013-06-30 18:49:00,
2013-06-30 14:54:00,83.4,75.0,29.84,South,190,3.4,3.4,76,0.00,FEW,OVC,0.15,WeatherDisplay:10.37,2013-06-30 18:54:00,
2013-06-30 14:59:00,83.4,75.0,29.84,WSW,239,3.4,3.4,76,0.00,FEW,OVC,0.15,WeatherDisplay:10.37,2013-06-30 18:59:00,
2013-06-30 15:04:00,83.3,75.3,29.84,SSW,201,3.4,3.4,77,0.00,CLR,OVC,0.15,WeatherDisplay:10.37,2013-06-30 19:04:00,
2013-06-30 15:09:00,84.1,76.5,29.84,SW,225,9.0,9.0,78,0.00,CLR,OVC,0.15,WeatherDisplay:10.37,2013-06-30 19:09:00,
2013-06-30 15:14:00,85.1,76.7,29.84,SW,232,6.9,6.9,76,0.00,CLR,OVC,0.15,WeatherDisplay:10.37,2013-06-30 19:14:00,
2013-06-30 15:19:00,85.8,77.0,29.84,South,170,4.6,4.6,75,0.00,CLR,OVC,0.15,WeatherDisplay:10.37,2013-06-30 19:19:00,
2013-06-30 15:24:00,85.5,76.3,29.84,West,265,16.1,16.1,74,0.00,CLR,OVC,0.15,WeatherDisplay:10.37,2013-06-30 19:24:00,
2013-06-30 15:29:00,84.6,75.8,29.84,SW,226,6.0,6.0,75,0.00,CLR,OVC,0.15,WeatherDisplay:10.37,2013-06-30 19:29:00,
2013-06-30 15:34:00,83.6,74.8,29.85,South,179,9.2,9.2,75,0.00,CLR,OVC,0.15,WeatherDisplay:10.37,2013-06-30 19:34:00,
2013-06-30 15:39:00,82.4,75.2,29.86,SE,138,6.9,6.9,79,0.00,CLR,OVC,0.15,WeatherDisplay:10.37,2013-06-30 19:39:00,
2013-06-30 15:44:00,81.1,75.1,29.86,South,191,4.6,4.6,82,0.01,RA,OVC,0.16,WeatherDisplay:10.37,2013-06-30 19:44:00,
2013-06-30 15:49:00,80.0,74.4,29.86,South,170,3.4,3.4,83,0.01,RA,OVC,0.16,WeatherDisplay:10.37,2013-06-30 19:49:00,
2013-06-30 15:54:00,79.3,74.0,29.87,SSE,163,2.3,2.3,84,0.01,CLR,OVC,0.17,WeatherDisplay:10.37,2013-06-30 19:54:00,
2013-06-30 15:59:00,79.1,73.8,29.87,SE,132,2.3,2.3,84,0.02,RA,OVC,0.17,WeatherDisplay:10.37,2013-06-30 19:59:00,
2013-06-30 16:05:00,79.1,73.8,29.87,SE,132,2.3,2.3,84,0.02,RA,OVC,0.17,WeatherDisplay:10.37,2013-06-30 20:05:00,
2013-06-30 16:10:00,77.6,73.4,29.86,SSE,166,3.4,3.4,87,0.01,CLR,OVC,0.16,WeatherDisplay:10.37,2013-06-30 20:10:00,
2013-06-30 16:15:00,77.6,73.4,29.86,SSE,162,3.4,3.4,87,0.01,CLR,OVC,0.16,WeatherDisplay:10.37,2013-06-30 20:15:00,
2013-06-30 16:20:00,77.7,73.5,29.86,SSE,165,3.4,3.4,87,0.01,BKN,OVC,0.16,WeatherDisplay:10.37,2013-06-30 20:20:00,
2013-06-30 16:21:00,77.7,73.5,29.86,SSE,168,3.4,3.4,87,0.01,BKN,OVC,0.16,WeatherDisplay:10.37,2013-06-30 20:21:00,
2013-06-30 16:26:00,77.9,73.4,29.86,South,170,5.0,5.0,86,0.01,BKN,OVC,0.16,WeatherDisplay:10.37,2013-06-30 20:26:00,
2013-06-30 16:31:00,77.9,73.4,29.86,South,178,3.4,3.4,86,0.01,BKN,OVC,0.16,WeatherDisplay:10.37,2013-06-30 20:31:00,
2013-06-30 16:35:00,77.9,73.4,29.86,ESE,116,4.0,4.0,86,0.01,BKN,OVC,0.16,WeatherDisplay:10.37,2013-06-30 20:35:00,
2013-06-30 16:41:00,77.9,73.0,29.87,South,186,4.0,4.0,85,0.01,BKN,OVC,0.16,WeatherDisplay:10.37,2013-06-30 20:41:00,
2013-06-30 16:46:00,78.0,73.5,29.87,SSE,161,8.1,8.1,86,0.00,BKN,OVC,0.16,WeatherDisplay:10.37,2013-06-30 20:46:00,
2013-06-30 16:51:00,78.3,73.4,29.86,SE,135,5.8,5.8,85,0.00,BKN,OVC,0.16,WeatherDisplay:10.37,2013-06-30 20:51:00,
2013-06-30 16:56:00,78.5,73.6,29.86,SSW,200,4.6,4.6,85,0.00,BKN,OVC,0.16,WeatherDisplay:10.37,2013-06-30 20:56:00,
2013-06-30 17:01:00,78.5,73.6,29.86,SSE,149,5.8,5.8,85,0.00,BKN,OVC,0.16,WeatherDisplay:10.37,2013-06-30 21:01:00,
2013-06-30 17:06:00,78.3,73.4,29.86,SSE,147,6.9,6.9,85,0.00,CLR,OVC,0.16,WeatherDisplay:10.37,2013-06-30 21:06:00,
2013-06-30 17:11:00,78.1,73.2,29.86,South,188,4.6,4.6,85,0.00,CLR,OVC,0.16,WeatherDisplay:10.37,2013-06-30 21:11:00,
2013-06-30 17:16:00,77.8,72.9,29.86,SSE,166,4.0,4.0,85,0.00,CLR,OVC,0.16,WeatherDisplay:10.37,2013-06-30 21:16:00,
2013-06-30 17:21:00,77.7,72.8,29.86,SE,127,4.6,4.6,85,0.00,CLR,OVC,0.16,WeatherDisplay:10.37,2013-06-30 21:21:00,
2013-06-30 17:26:00,77.6,72.7,29.87,SW,215,6.9,6.9,85,0.00,CLR,OVC,0.16,WeatherDisplay:10.37,2013-06-30 21:26:00,
2013-06-30 17:31:00,77.4,72.5,29.87,South,169,3.4,3.4,85,0.00, +RA,OVC,0.16,WeatherDisplay:10.37,2013-06-30 21:31:00,
2013-06-30 17:36:00,77.3,72.8,29.86,South,171,4.6,4.6,86,0.00, +RA,OVC,0.16,WeatherDisplay:10.37,2013-06-30 21:36:00,
2013-06-30 17:41:00,77.3,72.8,29.86,SE,140,5.8,5.8,86,0.00, +RA,OVC,0.16,WeatherDisplay:10.37,2013-06-30 21:41:00,
2013-06-30 17:46:00,77.4,72.9,29.86,SSE,161,3.4,3.4,86,0.00,-RA,OVC,0.16,WeatherDisplay:10.37,2013-06-30 21:46:00,
2013-06-30 17:51:00,77.4,72.9,29.86,South,173,3.4,3.4,86,0.00,-RA,OVC,0.16,WeatherDisplay:10.37,2013-06-30 21:51:00,
2013-06-30 17:56:00,77.4,72.9,29.86,SSW,197,2.3,2.3,86,0.00,-RA,OVC,0.16,WeatherDisplay:10.37,2013-06-30 21:56:00,
2013-06-30 18:01:00,77.3,73.1,29.86,SSE,156,3.4,3.4,87,0.00,FEW,OVC,0.16,WeatherDisplay:10.37,2013-06-30 22:01:00,
2013-06-30 18:06:00,77.4,73.2,29.86,SE,145,2.3,2.3,87,0.00,FEW,OVC,0.16,WeatherDisplay:10.37,2013-06-30 22:06:00,
2013-06-30 18:11:00,77.4,73.2,29.86,SE,144,1.1,1.1,87,0.00,FEW,OVC,0.16,WeatherDisplay:10.37,2013-06-30 22:11:00,
2013-06-30 18:16:00,77.5,73.3,29.86,SW,230,4.6,4.6,87,0.00,FEW,OVC,0.16,WeatherDisplay:10.37,2013-06-30 22:16:00,
2013-06-30 18:21:00,77.5,73.3,29.86,SSE,166,4.6,4.6,87,0.00,FEW,OVC,0.16,WeatherDisplay:10.37,2013-06-30 22:21:00,
2013-06-30 18:26:00,77.4,73.2,29.86,SSW,208,5.0,5.0,87,0.00,FEW,OVC,0.16,WeatherDisplay:10.37,2013-06-30 22:26:00,
2013-06-30 18:31:00,77.4,73.2,29.86,South,191,4.6,4.6,87,0.00,FEW,OVC,0.16,WeatherDisplay:10.37,2013-06-30 22:31:00,
2013-06-30 18:36:00,77.4,73.2,29.86,SSE,166,2.3,2.3,87,0.00,FEW,OVC,0.16,WeatherDisplay:10.37,2013-06-30 22:36:00,
2013-06-30 18:41:00,77.4,73.2,29.85,South,185,2.3,2.3,87,0.00,FEW,OVC,0.16,WeatherDisplay:10.37,2013-06-30 22:41:00,
2013-06-30 18:46:00,77.5,73.3,29.85,South,175,2.3,2.3,87,0.00,FEW,OVC,0.16,WeatherDisplay:10.37,2013-06-30 22:46:00,
2013-06-30 18:51:00,77.6,73.4,29.85,SSE,164,1.1,1.1,87,0.00,FEW,OVC,0.16,WeatherDisplay:10.37,2013-06-30 22:51:00,
2013-06-30 18:56:00,77.5,73.3,29.84,SE,138,3.4,3.4,87,0.00,FEW,OVC,0.16,WeatherDisplay:10.37,2013-06-30 22:56:00,
2013-06-30 19:01:00,77.5,73.3,29.84,SSW,211,3.4,3.4,87,0.00,FEW,OVC,0.16,WeatherDisplay:10.37,2013-06-30 23:01:00,
2013-06-30 19:06:00,77.5,73.3,29.84,East,85,2.3,2.3,87,0.00,FEW,OVC,0.16,WeatherDisplay:10.37,2013-06-30 23:06:00,
2013-06-30 19:11:00,77.5,73.3,29.83,SSE,151,9.2,9.2,87,0.00,FEW,OVC,0.16,WeatherDisplay:10.37,2013-06-30 23:11:00,
2013-06-30 19:16:00,77.4,73.6,29.83,SSE,148,4.6,4.6,88,0.00,-RA,OVC,0.16,WeatherDisplay:10.37,2013-06-30 23:16:00,
2013-06-30 19:21:00,77.2,73.4,29.83,ESE,120,9.2,9.2,88,0.00,-RA,OVC,0.16,WeatherDisplay:10.37,2013-06-30 23:21:00,
2013-06-30 19:26:00,77.2,73.0,29.83,SE,135,8.0,8.0,87,0.00,-RA,OVC,0.16,WeatherDisplay:10.37,2013-06-30 23:26:00,
2013-06-30 19:31:00,77.1,72.9,29.84,SE,132,5.8,5.8,87,0.00,-RA,OVC,0.16,WeatherDisplay:10.37,2013-06-30 23:31:00,
2013-06-30 19:36:00,77.0,73.2,29.84,South,176,8.1,8.1,88,0.00,-RA,OVC,0.16,WeatherDisplay:10.37,2013-06-30 23:36:00,
2013-06-30 19:41:00,76.7,72.5,29.84,ESE,117,10.3,10.3,87,0.00,-RA,OVC,0.16,WeatherDisplay:10.37,2013-06-30 23:41:00,
2013-06-30 19:46:00,76.6,72.4,29.84,SSE,149,6.9,6.9,87,0.00,-RA,OVC,0.16,WeatherDisplay:10.37,2013-06-30 23:46:00,
2013-06-30 19:51:00,76.4,72.6,29.85,South,181,6.9,6.9,88,0.00,-RA,OVC,0.16,WeatherDisplay:10.37,2013-06-30 23:51:00,
2013-06-30 19:56:00,76.3,72.5,29.85,SSE,161,3.4,3.4,88,0.00,-RA,OVC,0.16,WeatherDisplay:10.37,2013-06-30 23:56:00,
2013-06-30 20:01:00,76.1,72.3,29.85,SW,233,3.4,3.4,88,0.00,CLR,OVC,0.16,WeatherDisplay:10.37,2013-07-01 00:01:00,
2013-06-30 20:06:00,76.0,72.2,29.86,SSE,163,4.6,4.6,88,0.00,CLR,OVC,0.16,WeatherDisplay:10.37,2013-07-01 00:06:00,
2013-06-30 20:11:00,76.0,72.2,29.86,SSE,152,4.6,4.6,88,0.00,CLR,OVC,0.16,WeatherDisplay:10.37,2013-07-01 00:11:00,
2013-06-30 20:16:00,75.9,72.1,29.86,South,185,2.3,2.3,88,0.00,CLR,OVC,0.16,WeatherDisplay:10.37,2013-07-01 00:16:00,
2013-06-30 20:21:00,75.8,72.0,29.87,South,171,6.9,6.9,88,0.00,CLR,OVC,0.16,WeatherDisplay:10.37,2013-07-01 00:21:00,
2013-06-30 20:26:00,75.7,71.9,29.86,South,174,8.1,8.1,88,0.00,CLR,OVC,0.16,WeatherDisplay:10.37,2013-07-01 00:26:00,
2013-06-30 20:31:00,75.6,71.8,29.86,SE,144,5.8,5.8,88,0.00,CLR,OVC,0.16,WeatherDisplay:10.37,2013-07-01 00:31:00,
2013-06-30 20:36:00,75.6,71.8,29.86,SE,144,3.4,3.4,88,0.00,CLR,OVC,0.16,WeatherDisplay:10.37,2013-07-01 00:36:00,
2013-06-30 20:41:00,75.4,71.6,29.86,ESE,102,2.3,2.3,88,0.00,CLR,OVC,0.16,WeatherDisplay:10.37,2013-07-01 00:41:00,
2013-06-30 20:46:00,75.4,71.9,29.87,SE,135,3.4,3.4,89,0.00,CLR,OVC,0.16,WeatherDisplay:10.37,2013-07-01 00:46:00,
2013-06-30 20:51:00,75.2,71.4,29.87,SE,138,6.9,6.9,88,0.00,CLR,OVC,0.16,WeatherDisplay:10.37,2013-07-01 00:51:00,
2013-06-30 20:56:00,75.3,71.5,29.86,SE,135,5.8,5.8,88,0.00,CLR,OVC,0.16,WeatherDisplay:10.37,2013-07-01 00:56:00,
2013-06-30 21:01:00,75.3,71.5,29.86,ESE,123,5.0,5.0,88,0.00,CLR,OVC,0.16,WeatherDisplay:10.37,2013-07-01 01:01:00,
2013-06-30 21:06:00,75.3,71.5,29.87,SE,127,4.6,4.6,88,0.00,CLR,OVC,0.16,WeatherDisplay:10.37,2013-07-01 01:06:00,
2013-06-30 21:11:00,75.2,71.7,29.87,SE,144,6.9,6.9,89,0.00,CLR,OVC,0.16,WeatherDisplay:10.37,2013-07-01 01:11:00,
2013-06-30 21:16:00,75.2,71.7,29.87,East,85,8.1,8.1,89,0.00,CLR,OVC,0.16,WeatherDisplay:10.37,2013-07-01 01:16:00,
2013-06-30 21:21:00,75.1,71.6,29.87,ESE,102,5.0,5.0,89,0.00,CLR,OVC,0.16,WeatherDisplay:10.37,2013-07-01 01:21:00,
2013-06-30 21:26:00,74.9,71.4,29.87,SE,127,10.3,10.3,89,0.00,CLR,OVC,0.16,WeatherDisplay:10.37,2013-07-01 01:26:00,
2013-06-30 21:31:00,74.9,71.4,29.87,SE,128,5.8,5.8,89,0.00,CLR,OVC,0.16,WeatherDisplay:10.37,2013-07-01 01:31:00,
2013-06-30 21:36:00,74.8,71.3,29.86,SE,130,1.1,1.1,89,0.00,CLR,OVC,0.16,WeatherDisplay:10.37,2013-07-01 01:36:00,
2013-06-30 21:41:00,74.7,71.2,29.86,SSE,167,2.3,2.3,89,0.00,CLR,OVC,0.16,WeatherDisplay:10.37,2013-07-01 01:41:00,
2013-06-30 21:46:00,74.7,71.2,29.86,SSE,149,1.1,1.1,89,0.00,CLR,OVC,0.16,WeatherDisplay:10.37,2013-07-01 01:46:00,
2013-06-30 21:51:00,74.6,71.1,29.87,SE,135,3.4,3.4,89,0.00,CLR,OVC,0.16,WeatherDisplay:10.37,2013-07-01 01:51:00,
2013-06-30 21:56:00,74.6,71.1,29.87,SE,142,3.4,3.4,89,0.00,CLR,OVC,0.16,WeatherDisplay:10.37,2013-07-01 01:56:00,
2013-06-30 22:01:00,74.7,71.2,29.87,SE,145,3.4,3.4,89,0.00,CLR,OVC,0.16,WeatherDisplay:10.37,2013-07-01 02:01:00,
2013-06-30 22:06:00,74.6,71.1,29.87,South,177,2.3,2.3,89,0.00,CLR,OVC,0.16,WeatherDisplay:10.37,2013-07-01 02:06:00,
2013-06-30 22:11:00,74.7,71.2,29.88,South,173,3.4,3.4,89,0.00,CLR,OVC,0.16,WeatherDisplay:10.37,2013-07-01 02:11:00,
2013-06-30 22:16:00,74.7,71.2,29.88,SSE,165,2.3,2.3,89,0.00,CLR,OVC,0.16,WeatherDisplay:10.37,2013-07-01 02:16:00,
2013-06-30 22:21:00,74.7,71.2,29.88,SSE,164,3.4,3.4,89,0.00,CLR,OVC,0.16,WeatherDisplay:10.37,2013-07-01 02:21:00,
2013-06-30 22:26:00,74.7,71.2,29.89,SSW,206,2.3,2.3,89,0.00,CLR,OVC,0.16,WeatherDisplay:10.37,2013-07-01 02:26:00,
2013-06-30 22:31:00,74.8,71.3,29.89,SE,127,3.4,3.4,89,0.00,CLR,OVC,0.16,WeatherDisplay:10.37,2013-07-01 02:31:00,
2013-06-30 22:36:00,74.8,71.3,29.89,SW,215,3.4,3.4,89,0.00,CLR,OVC,0.16,WeatherDisplay:10.37,2013-07-01 02:36:00,
2013-06-30 22:41:00,74.7,71.2,29.89,SSW,194,2.3,2.3,89,0.00,CLR,OVC,0.16,WeatherDisplay:10.37,2013-07-01 02:41:00,
2013-06-30 22:46:00,74.7,71.2,29.89,SSW,194,1.1,1.1,89,0.00,CLR,OVC,0.16,WeatherDisplay:10.37,2013-07-01 02:46:00,
2013-06-30 22:49:00,74.6,71.1,29.89,SSE,166,2.3,2.3,89,0.00,CLR,OVC,0.16,WeatherDisplay:10.37,2013-07-01 02:49:00,
2013-06-30 22:51:00,74.6,71.1,29.89,SSE,166,2.3,2.3,89,0.00,CLR,OVC,0.16,WeatherDisplay:10.37,2013-07-01 02:51:00,
2013-06-30 22:56:00,74.6,71.1,29.89,SSE,166,2.3,2.3,89,0.00,CLR,OVC,0.16,WeatherDisplay:10.37,2013-07-01 02:56:00,
2013-06-30 23:04:00,74.8,71.3,29.89,SSE,147,4.0,4.0,89,0.00,CLR,OVC,0.16,WeatherDisplay:10.37,2013-07-01 03:04:00,
2013-06-30 23:09:00,74.7,71.2,29.89,South,171,3.4,3.4,89,0.00,CLR,OVC,0.16,WeatherDisplay:10.37,2013-07-01 03:09:00,
2013-06-30 23:14:00,74.6,71.1,29.89,SSE,159,1.1,1.1,89,0.00,CLR,OVC,0.16,WeatherDisplay:10.37,2013-07-01 03:14:00,
2013-06-30 23:19:00,74.5,71.0,29.89,SSE,165,2.3,2.3,89,0.00,CLR,OVC,0.16,WeatherDisplay:10.37,2013-07-01 03:19:00,
2013-06-30 23:24:00,74.4,70.9,29.89,SE,144,2.3,2.3,89,0.00,CLR,OVC,0.16,WeatherDisplay:10.37,2013-07-01 03:24:00,
2013-06-30 23:29:00,74.4,70.9,29.89,SSE,154,1.1,1.1,89,0.00,CLR,OVC,0.16,WeatherDisplay:10.37,2013-07-01 03:29:00,
2013-06-30 23:34:00,74.4,70.9,29.89,SE,132,4.0,4.0,89,0.00,CLR,OVC,0.16,WeatherDisplay:10.37,2013-07-01 03:34:00,
2013-06-30 23:39:00,74.3,70.8,29.88,East,90,3.4,3.4,89,0.00,CLR,OVC,0.16,WeatherDisplay:10.37,2013-07-01 03:39:00,
2013-06-30 23:44:00,74.4,70.9,29.88,SE,135,4.6,4.6,89,0.00,CLR,OVC,0.16,WeatherDisplay:10.37,2013-07-01 03:44:00,
2013-06-30 23:49:00,74.5,71.0,29.89,South,178,3.4,3.4,89,0.00,CLR,OVC,0.16,WeatherDisplay:10.37,2013-07-01 03:49:00,
2013-06-30 23:54:00,74.6,71.1,29.89,SSE,165,2.3,2.3,89,0.00,CLR,OVC,0.16,WeatherDisplay:10.37,2013-07-01 03:54:00,
2013-06-30 23:59:00,74.6,71.1,29.89,South,176,3.4,3.4,89,0.00,CLR,OVC,0.16,WeatherDisplay:10.37,2013-07-01 03:59:00,